Regional Weather Roundup
Issued by NWS

Home | Current Version | Previous Version | Graphics & Text | Print | Product List | Glossary On
Versions: 1 2 3 4 5 6 7 8 9 10 11 12 13 14 15 16 17 18 19 20 21 22 23 24 25 26 27 28 29 30 31 32 33 34 35 36 37 38 39 40 41 42 43 44 45 46 47 48 49 50
000
ASUS43 KLOT 261706
RWRIL

ILLINOIS REGIONAL WEATHER ROUNDUP
NATIONAL WEATHER SERVICE CHICAGO/ROMEOVILLE IL
1100 AM CST FRI DEC 26 2014

NOTE: "FAIR" INDICATES FEW OR NO CLOUDS BELOW 12,000 FEET WITH NO
SIGNIFICANT WEATHER AND/OR OBSTRUCTIONS TO VISIBILITY.

* THESE STATIONS ARE NOT UNDER NWS QUALITY CONTROL. THEY ALSO MAY NOT
  REPORT WEATHER SUCH AS PRECIPITATION OR FOG.

ILZ001-002-007-009-015-016-024-261800-
NORTHWEST ILLINOIS

CITY           SKY/WX    TMP DP  RH WIND       PRES   REMARKS
MOLINE         CLOUDY    47  36  65 SW10      29.98S
STERLING*      CLOUDY    48  37  66 W10       29.99F
SAVANNA*       CLOUDY    46  36  66 S9        29.97F
$$

ILZ003-004-008-010-011-017-018-261800-
NORTH CENTRAL ILLINOIS

CITY           SKY/WX    TMP DP  RH WIND       PRES   REMARKS
ROCKFORD       CLOUDY    45  35  68 SW15      30.01F
FREEPORT*      PTSUNNY   43  37  78 S13G18    29.99F
ROCHELLE*      PTSUNNY   45  39  80 SW15      30.01F
DE KALB*       MOSUNNY   43  36  75 SW10      30.01F
PERU*          PTSUNNY   47  38  68 SW17      30.02F
$$

ILZ005-006-012>014-019>023-261800-
NORTHEAST ILLINOIS

CITY           SKY/WX    TMP DP  RH WIND       PRES   REMARKS
CHICAGO-OHARE  PTSUNNY   45  35  68 SW14      30.02F
CHICAGO-MIDWAY PTSUNNY   46  37  71 SW13      30.04F
AURORA         SUNNY     46  37  71 SW9       30.03F
LANSING*       MOSUNNY   47  38  72 SW17      30.05F
JOLIET*        MOSUNNY   46  37  70 SW9G18    30.04F
WAUKEGAN       MOSUNNY   46  35  65 SW21      29.99F
DUPAGE AIRPORT SUNNY     45  37  73 S9        30.02F
KANKAKEE*      MOSUNNY   47  40  77 S15G24    30.07F
WHEELING       SUNNY     45  34  65 SW12      30.04F
MORRIS*        MOSUNNY   47  40  78 SW15      30.03F
ROMEOVILLE*    MOSUNNY   45  36  71 SW13      30.04F
NORTHERLY ISL    N/A     44  34  67 SW6         N/A
$$

LMZ740>746-261800-
SOUTHERN LAKE MICHIGAN

STATION/POSITION SKY/WX   TEMP    WIND        PRES    VSBY  WAVE
                          AIR SEA DIR/SP/G                  HT/PER
                          (F)     (DEG/KT/KT) (MB)    (MI)  (FT/S)
WAUKEGAN HARBOR            44     250/ 19/ 25   N/A
HARRISON CRIB              42     200/ 19/ 24   N/A
BURNHAM HARBOR             44     210/  6/ 13   N/A
CALUMET HARBOR             44     200/ 11/ 15 1016.1F
MICHIGAN CITY              44     180/ 16/ 20   N/A
$$

ILZ025>027-034>036-040-047-049-050-058-095>099-261800-
WEST-CENTRAL ILLINOIS

CITY           SKY/WX    TMP DP  RH WIND       PRES   REMARKS
QUINCY         SUNNY     49  39  68 SW15      30.01F
GALESBURG*     MOSUNNY   49  39  67 S16G22    30.00F
MACOMB*        MOSUNNY   48  40  74 S13G21    30.03S
JACKSONVILLE*  MOSUNNY   51  41  68 SW16      30.04F
PITTSFIELD*    MOSUNNY   52  42  67 SW17      30.04F
$$

ILZ028>032-037-038-041>044-048-051>054-059>061-261800-
CENTRAL ILLINOIS

CITY           SKY/WX    TMP DP  RH WIND       PRES   REMARKS
PONTIAC        MOSUNNY   49  41  74 SW18G26   30.05F
BLOOMINGTON    MOSUNNY   47  40  76 SW18      30.06F
DECATUR        MOSUNNY   49  40  71 SW15      30.09F
PEORIA         MOSUNNY   46  38  73 S12       30.03F
LACON*         MOSUNNY   45  36  69 SW10G21   30.03F
LINCOLN*       MOSUNNY   49  40  70 S10G16    30.06F
SPRINGFIELD    MOSUNNY   50  40  68 S10       30.07F
TAYLORVILLE    MOSUNNY   48  41  76 S21       30.08F
$$

ILZ033-039-045-046-055>057-062-063-261800-
EAST-CENTRAL ILLINOIS

CITY           SKY/WX    TMP DP  RH WIND       PRES   REMARKS
CHAMPAIGN      PTSUNNY   47  40  76 S16       30.09F
DANVILLE*      SUNNY     44  39  81 S17       30.08F
RANTOUL*       PTSUNNY   50  42  74 SW15      30.08F
MATTOON        MOSUNNY   45  39  79 S10       30.11F
PARIS*         MOSUNNY   47  41  81 S18       30.13F
$$

ILZ079-100>102-261800-
SOUTHWEST ILLINOIS

CITY           SKY/WX    TMP DP  RH WIND       PRES   REMARKS
ALTON          SUNNY     48  39  71 S10G17    30.09F
BELLEVILLE     SUNNY     50  42  72 S15       30.10F
CAHOKIA*       SUNNY     53  41  63 S9        30.10F
SPARTA*        SUNNY     47  40  75 S13G18    30.13F
$$

ILZ064>066-069>071-074>076-080>082-084>086-088>090-092>094-261800-
SOUTH-CENTRAL ILLINOIS

CITY           SKY/WX    TMP DP  RH WIND       PRES   REMARKS
CARBONDALE     SUNNY     51  39  63 S17       30.18F
CAIRO*         PTSUNNY   51  41  68 SW9       30.22F
EFFINGHAM*     MOSUNNY   49  37  63 S8        30.16S
MARION         PTSUNNY   52  41  66 S14       30.18F
MT. VERNON     SUNNY     50  39  66 S12       30.16F
CENTRALIA*     SUNNY     49  39  69 S14       30.14F
SALEM*         SUNNY     51  42  71 S20       30.14F
METROPOLIS*    SUNNY     51  40  66 SW10      30.21F
$$

ILZ067-068-072-073-078-083-087-091-261800-
SOUTHEAST ILLINOIS

CITY           SKY/WX    TMP DP  RH WIND       PRES   REMARKS
LAWRENCEVILLE  SUNNY     50  40  68 S16       30.18F
FLORA*         SUNNY     49  40  72 S17G23    30.17F
FAIRFIELD*     SUNNY     51  41  70 S9        30.16F
HARRISBURG*    SUNNY     52  40  65 SW12G21   30.19F
ROBINSON*      SUNNY     49  40  71 SW18      30.18F
CARMI*         SUNNY     53  43  68 S12G17    30.19F
$$

ABBREVIATIONS USED IN REMARKS
   TC - TEMPERATURE IN CELSIUS
  WCI - WIND CHILL INDEX
   HX - HEAT INDEX
  VSB - VISIBILITY
$$




USA.gov is the U.S. government's official web portal to all federal, state and local government web resources and services.